sat.trackr.live / text

‹ back to catalog

VSP RF B1

NORAD 59137 · 2024-043AR

PAYLOAD ACTIVE UNKNOWN

§ Identity

Operator
Country
BEL
Launch date
2024-03-04
Launch site
AFWTR
Launch vehicle
Mass (kg)
RCS (m²)

External: N2YO · Heavens-Above · Gunter

§ Orbital elements

Epoch: 2026-09-22T22:51:24.114816Z

Period
94.57 min
Inclination
97.5751°
Eccentricity
0.0001012
Mean motion
15.22743244 rev/d
Perigee alt
496.9 km
Apogee alt
498.3 km
Semi-major
6,875.7 km
B*
1.0146e-4
RAAN
43.8696°
Arg perigee
80.1892°
Mean anomaly
279.9458°
Rev number
14,191

§ Raw data

VSP RF B11 59137U 24043AR  26265.95236244  .00002295  00000+0  10146-3 0  99962 59137  97.5751  43.8696 0001012  80.1892 279.9458 15.22743244141913

JSON: /api/v1/satellites/59137 · /tle

For live sub-satellite position, see the globe view (requires WebGL).

§ Visibility from observer

Set your observer location to see the next 7 days of passes ≥ 10°. The values pass through the URL so the page stays shareable.

No JS? Fill the form by hand. The geolocation button needs JavaScript.